Location: Pinon Hills
(34.4429°N, 117.6403°W)
Time: 12:18:07
(UTC-08:00)

Uosat F - Visible Passes

Search period start: 25 January 2015 00:00
Search period end: 04 February 2015 00:00
Orbit: 751 x 762 km, 98.7° (Epoch: 24 January)

Date Brightness Start Highest point End Pass type
(mag) Time Alt. Az. Time Alt. Az. Time Alt. Az.
25 Jan 13.2 03:52:04 10° NE 03:54:12 22° NE 03:54:12 22° NE visible
25 Jan 12.2 05:31:07 10° NNW 05:34:13 23° NW 05:34:13 23° NW visible
26 Jan 11.6 04:51:11 10° N 04:54:45 44° NNW 04:54:45 44° NNW visible
27 Jan 12.3 04:12:01 10° NNE 04:15:17 37° NE 04:15:17 37° NE visible
27 Jan 12.5 05:52:18 10° NNW 05:55:20 16° WNW 05:55:20 16° WNW visible
28 Jan 13.6 03:33:50 10° NE 03:35:50 17° ENE 03:35:50 17° ENE visible
28 Jan 11.6 05:11:45 10° N 05:15:52 37° WNW 05:15:52 37° WNW visible
29 Jan 11.3 04:32:13 10° NNE 04:36:26 62° NNE 04:36:26 62° NNE visible
30 Jan 12.8 03:53:27 10° NE 03:56:59 30° ENE 03:56:59 30° ENE visible
30 Jan 12.0 05:32:32 10° NNW 05:36:36 24° WNW 05:37:02 24° WNW visible
31 Jan 14.0 03:16:20 10° ENE 03:17:34 12° E 03:17:34 12° E visible
31 Jan 11.0 04:52:35 10° N 04:57:34 60° WNW 04:57:37 60° WNW visible
01 Feb 11.7 04:13:25 10° NNE 04:18:12 53° E 04:18:12 53° E visible
01 Feb 12.5 05:53:45 10° NNW 05:56:46 16° WNW 05:58:14 14° W visible
02 Feb 13.3 03:35:12 10° NE 03:38:49 21° E 03:38:49 21° E visible
02 Feb 11.5 05:13:09 10° N 05:17:48 37° WNW 05:18:51 33° W visible
03 Feb 11.0 04:33:37 10° NNE 04:38:41 86° ESE 04:39:28 65° S visible
